This demonstration page uses our WeatherBlox Daily Observations layout. Learn more.

36.17497, -115.13722

Hourly Observations for May 7, 2018

Temp ( °F °C ) Dew Point ( °F °C ) Humidity (%) Winds ( mph kmh ) Pressure ( in mb ) Visibility ( mi km ) Precip ( " mm )
12:53 am 00:53 Clear 83 28.3 19 -7.2 9 9 WSW 7 11 29.88 1012 10 16.09344 0 0
1:53 am 01:53 Clear 76 24.4 25 -3.9 15 15 S 7 11 29.88 1012 10 16.09344 0 0
2:53 am 02:53 Clear 74 23.3 30 -1.1 20 20 NNW 5 7 29.88 1012 10 16.09344 0 0
3:53 am 03:53 Clear 73 22.8 27 -2.8 18 18 WNW 3 6 29.88 1012 10 16.09344 0 0
4:53 am 04:53 Clear 71 21.7 28 -2.2 20 20 NNW 8 13 29.88 1012 10 16.09344 0 0
5:53 am 05:53 Sunny 72 22.2 27 -2.8 19 19 W 7 11 29.91 1013 10 16.09344 0 0
6:53 am 06:53 Sunny 71 21.7 29 -1.7 21 21 NNW 5 7 29.94 1014 10 16.09344 0 0
7:53 am 07:53 Sunny 77 25 27 -2.8 16 16 NNW 5 7 29.94 1014 10 16.09344 0 0
8:53 am 08:53 Sunny 81 27.2 22 -5.6 11 11 NNE 3 6 29.94 1014 10 16.09344 0 0
9:53 am 09:53 Sunny 85 29.4 22 -5.6 10 10 NNE 3 6 29.97 1015 10 16.09344 0 0
10:53 am 10:53 Sunny 87 30.6 19 -7.2 8 8 SE 5 7 29.97 1015 10 16.09344 0 0
11:53 am 11:53 Sunny 91 32.8 20 -6.7 7 7 SE 12 19 29.94 1014 10 16.09344 0 0
12:53 pm 12:53 Sunny 94 34.4 15 -9.4 5 5 SSE 14 22 29.91 1013 10 16.09344 0 0
1:53 pm 13:53 Sunny 96 35.6 7 -13.9 3 3 SSW 10 17 29.91 1013 10 16.09344 0 0
2:53 pm 14:53 Sunny 96 35.6 5 -15 3 3 S 9 15 29.88 1012 10 16.09344 0 0
3:53 pm 15:53 Sunny 96 35.6 7 -13.9 3 3 S 7 11 29.85 1011 10 16.09344 0 0
4:53 pm 16:53 Sunny 96 35.6 8 -13.3 4 4 S 7 11 29.85 1011 10 16.09344 0 0
5:53 pm 17:53 Sunny 96 35.6 6 -14.4 3 3 SW 10 17 29.83 1010 10 16.09344 0 0
6:53 pm 18:53 Sunny 95 35 7 -13.9 4 4 SSW 7 11 29.83 1010 10 16.09344 0 0
7:53 pm 19:53 Clear 92 33.3 8 -13.3 4 4 W 6 9 29.85 1011 10 16.09344 0 0
8:53 pm 20:53 Clear 88 31.1 12 -11.1 6 6 W 8 13 29.85 1011 10 16.09344 0 0
9:53 pm 21:53 Clear 83 28.3 18 -7.8 9 9 NW 7 11 29.88 1012 10 16.09344 0 0
10:53 pm 22:53 Clear 82 27.8 18 -7.8 9 9 WSW 7 11 29.88 1012 10 16.09344 0 0
11:53 pm 23:53 Clear 80 26.7 18 -7.8 10 10 W 3 6 29.88 1012 10 16.09344 0 0

Powered by AerisWeather